Year,Month,Day,Hour,Minute,Value (Times are PST for temperature in C)
2009,07,27,00,00,19.20
2009,07,27,00,01,19.20
2009,07,27,00,02,19.20
2009,07,27,00,03,19.20
2009,07,27,00,04,19.20
2009,07,27,00,05,19.20
2009,07,27,00,06,19.20
2009,07,27,00,07,19.20
2009,07,27,00,08,19.20
2009,07,27,00,09,19.20
2009,07,27,00,10,19.20
2009,07,27,00,11,19.20
2009,07,27,00,12,19.20
2009,07,27,00,13,19.20
2009,07,27,00,14,19.20
2009,07,27,00,15,19.20
2009,07,27,00,16,19.20
2009,07,27,00,17,19.20
2009,07,27,00,18,19.20
2009,07,27,00,19,19.20
2009,07,27,00,20,19.20
2009,07,27,00,21,19.20
2009,07,27,00,22,19.20
2009,07,27,00,23,19.20
2009,07,27,00,24,19.20
2009,07,27,00,25,19.20
2009,07,27,00,26,19.20
2009,07,27,00,27,19.20
2009,07,27,00,28,19.10
2009,07,27,00,29,19.10
2009,07,27,00,30,19.10
2009,07,27,00,31,19.10
2009,07,27,00,32,19.10
2009,07,27,00,33,19.10
2009,07,27,00,34,19.10
2009,07,27,00,35,19.10
2009,07,27,00,36,19.00
2009,07,27,00,37,19.00
2009,07,27,00,38,19.00
2009,07,27,00,39,19.00
2009,07,27,00,40,18.90
2009,07,27,00,41,18.90
2009,07,27,00,42,18.90
2009,07,27,00,43,18.90
2009,07,27,00,44,18.90
2009,07,27,00,45,18.90
2009,07,27,00,46,18.90
2009,07,27,00,47,18.90
2009,07,27,00,48,18.80
2009,07,27,00,49,18.80
2009,07,27,00,50,18.80
2009,07,27,00,51,18.80
2009,07,27,00,52,18.80
2009,07,27,00,53,18.80
2009,07,27,00,54,18.80
2009,07,27,00,55,18.80
2009,07,27,00,56,18.80
2009,07,27,00,57,18.80
2009,07,27,00,58,18.80
2009,07,27,00,59,18.80
2009,07,27,01,00,18.70
2009,07,27,01,01,18.70
2009,07,27,01,02,18.70
2009,07,27,01,03,18.70
2009,07,27,01,04,18.70
2009,07,27,01,05,18.70
2009,07,27,01,06,18.70
2009,07,27,01,07,18.70
2009,07,27,01,08,18.70
2009,07,27,01,09,18.70
2009,07,27,01,10,18.70
2009,07,27,01,11,18.60
2009,07,27,01,12,18.60
2009,07,27,01,13,18.60
2009,07,27,01,14,18.60
2009,07,27,01,15,18.60
2009,07,27,01,16,18.60
2009,07,27,01,17,18.60
2009,07,27,01,18,18.60
2009,07,27,01,19,18.60
2009,07,27,01,20,18.50
2009,07,27,01,21,18.50
2009,07,27,01,22,18.50
2009,07,27,01,23,18.50
2009,07,27,01,24,18.50
2009,07,27,01,25,18.50
2009,07,27,01,26,18.40
2009,07,27,01,27,18.40
2009,07,27,01,28,18.40
2009,07,27,01,29,18.40
2009,07,27,01,30,18.40
2009,07,27,01,31,18.40
2009,07,27,01,32,18.50
2009,07,27,01,33,18.50
2009,07,27,01,34,18.50
2009,07,27,01,35,18.50
2009,07,27,01,36,18.50
2009,07,27,01,37,18.40
2009,07,27,01,38,18.40
2009,07,27,01,39,18.40
2009,07,27,01,40,18.40
2009,07,27,01,41,18.40
2009,07,27,01,42,18.40
2009,07,27,01,43,18.40
2009,07,27,01,44,18.40
2009,07,27,01,45,18.40
2009,07,27,01,46,18.40
2009,07,27,01,47,18.30
2009,07,27,01,48,18.30
2009,07,27,01,49,18.30
2009,07,27,01,50,18.30
2009,07,27,01,51,18.30
2009,07,27,01,52,18.30
2009,07,27,01,53,18.30
2009,07,27,01,54,18.30
2009,07,27,01,55,18.30
2009,07,27,01,56,18.30
2009,07,27,01,57,18.30
2009,07,27,01,58,18.30
2009,07,27,01,59,18.30
2009,07,27,02,00,18.30
2009,07,27,02,01,18.30
2009,07,27,02,02,18.30
2009,07,27,02,03,18.30
2009,07,27,02,04,18.30
2009,07,27,02,05,18.30
2009,07,27,02,06,18.30
2009,07,27,02,07,18.30
2009,07,27,02,08,18.20
2009,07,27,02,09,18.20
2009,07,27,02,10,18.20
2009,07,27,02,11,18.20
2009,07,27,02,12,18.20
2009,07,27,02,13,18.20
2009,07,27,02,14,18.20
2009,07,27,02,15,18.20
2009,07,27,02,16,18.20
2009,07,27,02,17,18.20
2009,07,27,02,18,18.20
2009,07,27,02,19,18.20
2009,07,27,02,20,18.20
2009,07,27,02,21,18.10
2009,07,27,02,22,18.10
2009,07,27,02,23,18.10
2009,07,27,02,24,18.10
2009,07,27,02,25,18.10
2009,07,27,02,26,18.10
2009,07,27,02,27,18.10
2009,07,27,02,28,18.10
2009,07,27,02,29,18.10
2009,07,27,02,30,18.10
2009,07,27,02,31,18.10
2009,07,27,02,32,18.10
2009,07,27,02,33,18.10
2009,07,27,02,34,18.10
2009,07,27,02,35,18.10
2009,07,27,02,36,18.00
2009,07,27,02,37,18.00
2009,07,27,02,38,18.00
2009,07,27,02,39,18.00
2009,07,27,02,40,18.00
2009,07,27,02,41,18.00
2009,07,27,02,42,18.00
2009,07,27,02,43,17.90
2009,07,27,02,44,17.90
2009,07,27,02,45,17.90
2009,07,27,02,46,17.90
2009,07,27,02,47,17.90
2009,07,27,02,48,17.90
2009,07,27,02,49,17.90
2009,07,27,02,50,17.90
2009,07,27,02,51,17.90
2009,07,27,02,52,17.90
2009,07,27,02,53,17.90
2009,07,27,02,54,17.90
2009,07,27,02,55,17.80
2009,07,27,02,56,17.80
2009,07,27,02,57,17.80
2009,07,27,02,58,17.80
2009,07,27,02,59,17.80
2009,07,27,03,00,17.80
2009,07,27,03,01,17.80
2009,07,27,03,02,17.80
2009,07,27,03,03,17.80
2009,07,27,03,04,17.80
2009,07,27,03,05,17.80
2009,07,27,03,06,17.80
2009,07,27,03,07,17.80
2009,07,27,03,08,17.80
2009,07,27,03,09,17.80
2009,07,27,03,10,17.80
2009,07,27,03,11,17.80
2009,07,27,03,12,17.80
2009,07,27,03,13,17.80
2009,07,27,03,14,17.80
2009,07,27,03,15,17.80
2009,07,27,03,16,17.80
2009,07,27,03,17,17.80
2009,07,27,03,18,17.70
2009,07,27,03,19,17.70
2009,07,27,03,20,17.70
2009,07,27,03,21,17.70
2009,07,27,03,22,17.70
2009,07,27,03,23,17.70
2009,07,27,03,24,17.70
2009,07,27,03,25,17.70
2009,07,27,03,26,17.70
2009,07,27,03,27,17.70
2009,07,27,03,28,17.70
2009,07,27,03,29,17.60
2009,07,27,03,30,17.60
2009,07,27,03,31,17.60
2009,07,27,03,32,17.60
2009,07,27,03,33,17.60
2009,07,27,03,34,17.60
2009,07,27,03,35,17.60
2009,07,27,03,36,17.60
2009,07,27,03,37,17.60
2009,07,27,03,38,17.60
2009,07,27,03,39,17.60
2009,07,27,03,40,17.60
2009,07,27,03,41,17.60
2009,07,27,03,42,17.60
2009,07,27,03,43,17.60
2009,07,27,03,44,17.60
2009,07,27,03,45,17.60
2009,07,27,03,46,17.60
2009,07,27,03,47,17.60
2009,07,27,03,48,17.60
2009,07,27,03,49,17.50
2009,07,27,03,50,17.50
2009,07,27,03,51,17.50
2009,07,27,03,52,17.50
2009,07,27,03,53,17.50
2009,07,27,03,54,17.50
2009,07,27,03,55,17.40
2009,07,27,03,56,17.40
2009,07,27,03,57,17.40
2009,07,27,03,58,17.40
2009,07,27,03,59,17.40
2009,07,27,04,00,17.40
2009,07,27,04,01,17.40
2009,07,27,04,02,17.40
2009,07,27,04,03,17.40
2009,07,27,04,04,17.40
2009,07,27,04,05,17.40
2009,07,27,04,06,17.40
2009,07,27,04,07,17.30
2009,07,27,04,08,17.30
2009,07,27,04,09,17.30
2009,07,27,04,10,17.30
2009,07,27,04,11,17.30
2009,07,27,04,12,17.30
2009,07,27,04,13,17.30
2009,07,27,04,14,17.30
2009,07,27,04,15,17.30
2009,07,27,04,16,17.30
2009,07,27,04,17,17.30
2009,07,27,04,18,17.30
2009,07,27,04,19,17.30
2009,07,27,04,20,17.30
2009,07,27,04,21,17.30
2009,07,27,04,22,17.20
2009,07,27,04,23,17.20
2009,07,27,04,24,17.20
2009,07,27,04,25,17.20
2009,07,27,04,26,17.20
2009,07,27,04,27,17.20
2009,07,27,04,28,17.20
2009,07,27,04,29,17.20
2009,07,27,04,30,17.20
2009,07,27,04,31,17.20
2009,07,27,04,32,17.20
2009,07,27,04,33,17.10
2009,07,27,04,34,17.10
2009,07,27,04,35,17.10
2009,07,27,04,36,17.10
2009,07,27,04,37,17.10
2009,07,27,04,38,17.10
2009,07,27,04,39,17.10
2009,07,27,04,40,17.10
2009,07,27,04,41,17.10
2009,07,27,04,42,17.00
2009,07,27,04,43,17.00
2009,07,27,04,44,17.00
2009,07,27,04,45,17.00
2009,07,27,04,46,17.00
2009,07,27,04,47,17.00
2009,07,27,04,48,17.00
2009,07,27,04,49,16.90
2009,07,27,04,50,16.90
2009,07,27,04,51,16.90
2009,07,27,04,52,16.90
2009,07,27,04,53,16.90
2009,07,27,04,54,16.90
2009,07,27,04,55,16.90
2009,07,27,04,56,16.80
2009,07,27,04,57,16.80
2009,07,27,04,58,16.80
2009,07,27,04,59,16.80
2009,07,27,05,00,16.80
2009,07,27,05,01,16.80
2009,07,27,05,02,16.80
2009,07,27,05,03,16.80
2009,07,27,05,04,16.80
2009,07,27,05,05,16.80
2009,07,27,05,06,16.80
2009,07,27,05,07,16.80
2009,07,27,05,08,16.80
2009,07,27,05,09,16.80
2009,07,27,05,10,16.80
2009,07,27,05,11,16.70
2009,07,27,05,12,16.70
2009,07,27,05,13,16.70
2009,07,27,05,14,16.70
2009,07,27,05,15,16.70
2009,07,27,05,16,16.70
2009,07,27,05,17,16.70
2009,07,27,05,18,16.70
2009,07,27,05,19,16.70
2009,07,27,05,20,16.60
2009,07,27,05,21,16.60
2009,07,27,05,22,16.60
2009,07,27,05,23,16.60
2009,07,27,05,24,16.60
2009,07,27,05,25,16.60
2009,07,27,05,26,16.60
2009,07,27,05,27,16.50
2009,07,27,05,28,16.50
2009,07,27,05,29,16.50
2009,07,27,05,30,16.50
2009,07,27,05,31,16.50
2009,07,27,05,32,16.50
2009,07,27,05,33,16.40
2009,07,27,05,34,16.40
2009,07,27,05,35,16.40
2009,07,27,05,36,16.40
2009,07,27,05,37,16.40
2009,07,27,05,38,16.40
2009,07,27,05,39,16.30
2009,07,27,05,40,16.30
2009,07,27,05,41,16.30
2009,07,27,05,42,16.30
2009,07,27,05,43,16.30
2009,07,27,05,44,16.30
2009,07,27,05,45,16.30
2009,07,27,05,46,16.30
2009,07,27,05,47,16.30
2009,07,27,05,48,16.30
2009,07,27,05,49,16.30
2009,07,27,05,50,16.20
2009,07,27,05,51,16.20
2009,07,27,05,52,16.20
2009,07,27,05,53,16.20
2009,07,27,05,54,16.20
2009,07,27,05,55,16.20
2009,07,27,05,56,16.20
2009,07,27,05,57,16.20
2009,07,27,05,58,16.20
2009,07,27,05,59,16.20
2009,07,27,06,00,16.20
2009,07,27,06,01,16.20
2009,07,27,06,02,16.20
2009,07,27,06,03,16.20
2009,07,27,06,04,16.20
2009,07,27,06,05,16.20
2009,07,27,06,06,16.20
2009,07,27,06,07,16.10
2009,07,27,06,08,16.10
2009,07,27,06,09,16.10
2009,07,27,06,10,16.10
2009,07,27,06,11,16.20
2009,07,27,06,12,16.10
2009,07,27,06,13,16.20
2009,07,27,06,14,16.20
2009,07,27,06,15,16.20
2009,07,27,06,16,16.20
2009,07,27,06,17,16.20
2009,07,27,06,18,16.20
2009,07,27,06,19,16.20
2009,07,27,06,20,16.20
2009,07,27,06,21,16.20
2009,07,27,06,22,16.20
2009,07,27,06,23,16.20
2009,07,27,06,24,16.20
2009,07,27,06,25,16.20
2009,07,27,06,26,16.20
2009,07,27,06,27,16.20
2009,07,27,06,28,16.30
2009,07,27,06,29,16.30
2009,07,27,06,30,16.30
2009,07,27,06,31,16.30
2009,07,27,06,32,16.30
2009,07,27,06,33,16.30
2009,07,27,06,34,16.30
2009,07,27,06,35,16.30
2009,07,27,06,36,16.30
2009,07,27,06,37,16.30
2009,07,27,06,38,16.30
2009,07,27,06,39,16.30
2009,07,27,06,40,16.30
2009,07,27,06,41,16.30
2009,07,27,06,42,16.30
2009,07,27,06,43,16.30
2009,07,27,06,44,16.30
2009,07,27,06,45,16.40
2009,07,27,06,46,16.40
2009,07,27,06,47,16.40
2009,07,27,06,48,16.40
2009,07,27,06,49,16.40
2009,07,27,06,50,16.40
2009,07,27,06,51,16.40
2009,07,27,06,52,16.50
2009,07,27,06,53,16.50
2009,07,27,06,54,16.50
2009,07,27,06,55,16.50
2009,07,27,06,56,16.60
2009,07,27,06,57,16.60
2009,07,27,06,58,16.60
2009,07,27,06,59,16.60
2009,07,27,07,00,16.60
2009,07,27,07,01,16.60
2009,07,27,07,02,16.70
2009,07,27,07,03,16.70
2009,07,27,07,04,16.70
2009,07,27,07,05,16.70
2009,07,27,07,06,16.70
2009,07,27,07,07,16.70
2009,07,27,07,08,16.70
2009,07,27,07,09,16.80
2009,07,27,07,10,16.80
2009,07,27,07,11,16.80
2009,07,27,07,12,16.80
2009,07,27,07,13,16.90
2009,07,27,07,14,16.90
2009,07,27,07,15,16.90
2009,07,27,07,16,17.00
2009,07,27,07,17,17.00
2009,07,27,07,18,17.10
2009,07,27,07,19,17.10
2009,07,27,07,20,17.20
2009,07,27,07,21,17.20
2009,07,27,07,22,17.30
2009,07,27,07,23,17.30
2009,07,27,07,24,17.40
2009,07,27,07,25,17.40
2009,07,27,07,26,17.50
2009,07,27,07,27,17.50
2009,07,27,07,28,17.60
2009,07,27,07,29,17.60
2009,07,27,07,30,17.70
2009,07,27,07,31,17.70
2009,07,27,07,32,17.80
2009,07,27,07,33,17.80
2009,07,27,07,34,17.80
2009,07,27,07,35,17.90
2009,07,27,07,36,17.90
2009,07,27,07,37,18.00
2009,07,27,07,38,18.10
2009,07,27,07,39,18.10
2009,07,27,07,40,18.20
2009,07,27,07,41,18.20
2009,07,27,07,42,18.30
2009,07,27,07,43,18.30
2009,07,27,07,44,18.50
2009,07,27,07,45,18.50
2009,07,27,07,46,18.60
2009,07,27,07,47,18.80
2009,07,27,07,48,18.90
2009,07,27,07,49,19.00
2009,07,27,07,50,19.10
2009,07,27,07,51,19.30
2009,07,27,07,52,19.50
2009,07,27,07,53,19.70
2009,07,27,07,54,19.90
2009,07,27,07,55,20.00
2009,07,27,07,56,20.10
2009,07,27,07,57,20.30
2009,07,27,07,58,20.50
2009,07,27,07,59,20.70
2009,07,27,08,00,20.80
2009,07,27,08,01,21.00
2009,07,27,08,02,21.10
2009,07,27,08,03,21.20
2009,07,27,08,04,21.30
2009,07,27,08,05,21.40
2009,07,27,08,06,21.50
2009,07,27,08,07,21.50
2009,07,27,08,08,21.60
2009,07,27,08,09,21.70
2009,07,27,08,10,21.80
2009,07,27,08,11,21.90
2009,07,27,08,12,22.00
2009,07,27,08,13,22.10
2009,07,27,08,14,22.20
2009,07,27,08,15,22.30
2009,07,27,08,16,22.40
2009,07,27,08,17,22.50
2009,07,27,08,18,22.60
2009,07,27,08,19,22.70
2009,07,27,08,20,22.80
2009,07,27,08,21,22.90
2009,07,27,08,22,23.00
2009,07,27,08,23,23.10
2009,07,27,08,24,23.20
2009,07,27,08,25,23.30
2009,07,27,08,26,23.40
2009,07,27,08,27,23.50
2009,07,27,08,28,23.60
2009,07,27,08,29,23.60
2009,07,27,08,30,23.70
2009,07,27,08,31,23.70
2009,07,27,08,32,23.80
2009,07,27,08,33,23.80
2009,07,27,08,34,23.90
2009,07,27,08,35,24.00
2009,07,27,08,36,24.10
2009,07,27,08,37,24.20
2009,07,27,08,38,24.20
2009,07,27,08,39,24.30
2009,07,27,08,40,24.40
2009,07,27,08,41,24.50
2009,07,27,08,42,24.50
2009,07,27,08,43,24.60
2009,07,27,08,44,24.70
2009,07,27,08,45,24.80
2009,07,27,08,46,24.90
2009,07,27,08,47,24.90
2009,07,27,08,48,25.00
2009,07,27,08,49,25.00
2009,07,27,08,50,25.00
2009,07,27,08,51,25.10
2009,07,27,08,52,25.10
2009,07,27,08,53,25.10
2009,07,27,08,54,25.20
2009,07,27,08,55,25.20
2009,07,27,08,56,25.30
2009,07,27,08,57,25.30
2009,07,27,08,58,25.40
2009,07,27,08,59,25.40
2009,07,27,09,00,25.50
2009,07,27,09,01,25.60
2009,07,27,09,02,25.60
2009,07,27,09,03,25.60
2009,07,27,09,04,25.70
2009,07,27,09,05,25.70
2009,07,27,09,06,25.70
2009,07,27,09,07,25.70
2009,07,27,09,08,25.70
2009,07,27,09,09,25.70
2009,07,27,09,10,25.80
2009,07,27,09,11,25.80
2009,07,27,09,12,25.80
2009,07,27,09,13,25.80
2009,07,27,09,14,25.90
2009,07,27,09,15,25.90
2009,07,27,09,16,25.90
2009,07,27,09,17,25.90
2009,07,27,09,18,25.90
2009,07,27,09,19,25.90
2009,07,27,09,20,25.90
2009,07,27,09,21,25.90
2009,07,27,09,22,25.90
2009,07,27,09,23,25.80
2009,07,27,09,24,25.80
2009,07,27,09,25,25.80
2009,07,27,09,26,25.80
2009,07,27,09,27,25.80
2009,07,27,09,28,25.80
2009,07,27,09,29,25.80
2009,07,27,09,30,25.90
2009,07,27,09,31,25.90
2009,07,27,09,32,25.90
2009,07,27,09,33,26.00
2009,07,27,09,34,26.00
2009,07,27,09,35,26.10
2009,07,27,09,36,26.20
2009,07,27,09,37,26.20
2009,07,27,09,38,26.30
2009,07,27,09,39,26.30
2009,07,27,09,40,26.30
2009,07,27,09,41,26.40
2009,07,27,09,42,26.40
2009,07,27,09,43,26.40
2009,07,27,09,44,26.40
2009,07,27,09,45,26.40
2009,07,27,09,46,26.30
2009,07,27,09,47,26.30
2009,07,27,09,48,26.30
2009,07,27,09,49,26.30
2009,07,27,09,50,26.30
2009,07,27,09,51,26.20
2009,07,27,09,52,26.20
2009,07,27,09,53,26.20
2009,07,27,09,54,26.20
2009,07,27,09,55,26.20
2009,07,27,09,56,26.20
2009,07,27,09,57,26.20
2009,07,27,09,58,26.20
2009,07,27,09,59,26.20
2009,07,27,10,00,26.20
2009,07,27,10,01,26.20
2009,07,27,10,02,26.20
2009,07,27,10,03,26.10
2009,07,27,10,04,26.10
2009,07,27,10,05,26.10
2009,07,27,10,06,26.10
2009,07,27,10,07,26.10
2009,07,27,10,08,26.10
2009,07,27,10,09,26.10
2009,07,27,10,10,26.00
2009,07,27,10,11,26.00
2009,07,27,10,12,26.10
2009,07,27,10,13,26.20
2009,07,27,10,14,26.20
2009,07,27,10,15,26.30
2009,07,27,10,16,26.40
2009,07,27,10,17,26.50
2009,07,27,10,18,26.50
2009,07,27,10,19,26.60
2009,07,27,10,20,26.60
2009,07,27,10,21,26.70
2009,07,27,10,22,26.80
2009,07,27,10,23,26.90
2009,07,27,10,24,27.00
2009,07,27,10,25,27.10
2009,07,27,10,26,27.20
2009,07,27,10,27,27.30
2009,07,27,10,28,27.30
2009,07,27,10,29,27.30
2009,07,27,10,30,27.30
2009,07,27,10,31,27.30
2009,07,27,10,32,27.30
2009,07,27,10,33,27.30
2009,07,27,10,34,27.30
2009,07,27,10,35,27.30
2009,07,27,10,36,27.20
2009,07,27,10,37,27.20
2009,07,27,10,38,27.30
2009,07,27,10,39,27.30
2009,07,27,10,40,27.30
2009,07,27,10,41,27.30
2009,07,27,10,42,27.30
2009,07,27,10,43,27.30
2009,07,27,10,44,27.30
2009,07,27,10,45,27.20
2009,07,27,10,46,27.20
2009,07,27,10,47,27.20
2009,07,27,10,48,27.20
2009,07,27,10,49,27.10
2009,07,27,10,50,27.00
2009,07,27,10,51,27.00
2009,07,27,10,52,26.90
2009,07,27,10,53,26.90
2009,07,27,10,54,26.90
2009,07,27,10,55,26.90
2009,07,27,10,56,26.90
2009,07,27,10,57,27.00
2009,07,27,10,58,27.00
2009,07,27,10,59,27.10
2009,07,27,11,00,27.10
2009,07,27,11,01,27.20
2009,07,27,11,02,27.20
2009,07,27,11,03,27.30
2009,07,27,11,04,27.30
2009,07,27,11,05,27.30
2009,07,27,11,06,27.30
2009,07,27,11,07,27.40
2009,07,27,11,08,27.40
2009,07,27,11,09,27.40
2009,07,27,11,10,27.50
2009,07,27,11,11,27.50
2009,07,27,11,12,27.50
2009,07,27,11,13,27.50
2009,07,27,11,14,27.50
2009,07,27,11,15,27.60
2009,07,27,11,16,27.60
2009,07,27,11,17,27.60
2009,07,27,11,18,27.70
2009,07,27,11,19,27.70
2009,07,27,11,20,27.70
2009,07,27,11,21,27.60
2009,07,27,11,22,27.60
2009,07,27,11,23,27.60
2009,07,27,11,24,27.60
2009,07,27,11,25,27.60
2009,07,27,11,26,27.50
2009,07,27,11,27,27.40
2009,07,27,11,28,27.40
2009,07,27,11,29,27.40
2009,07,27,11,30,27.40
2009,07,27,11,31,27.50
2009,07,27,11,32,27.50
2009,07,27,11,33,27.60
2009,07,27,11,34,27.60
2009,07,27,11,35,27.70
2009,07,27,11,36,27.80
2009,07,27,11,37,27.80
2009,07,27,11,38,27.80
2009,07,27,11,39,27.80
2009,07,27,11,40,27.90
2009,07,27,11,41,27.90
2009,07,27,11,42,27.90
2009,07,27,11,43,28.00
2009,07,27,11,44,28.10
2009,07,27,11,45,28.20
2009,07,27,11,46,28.20
2009,07,27,11,47,28.20
2009,07,27,11,48,28.30
2009,07,27,11,49,28.30
2009,07,27,11,50,28.30
2009,07,27,11,51,28.30
2009,07,27,11,52,28.30
2009,07,27,11,53,28.30
2009,07,27,11,54,28.40
2009,07,27,11,55,28.40
2009,07,27,11,56,28.50
2009,07,27,11,57,28.60
2009,07,27,11,58,28.70
2009,07,27,11,59,28.70
2009,07,27,12,00,28.80
2009,07,27,12,01,28.80
2009,07,27,12,02,28.80
2009,07,27,12,03,28.80
2009,07,27,12,04,28.80
2009,07,27,12,05,28.80
2009,07,27,12,06,28.90
2009,07,27,12,07,28.90
2009,07,27,12,08,28.90
2009,07,27,12,09,29.00
2009,07,27,12,10,29.10
2009,07,27,12,11,29.10
2009,07,27,12,12,29.20
2009,07,27,12,13,29.20
2009,07,27,12,14,29.20
2009,07,27,12,15,29.30
2009,07,27,12,16,29.30
2009,07,27,12,17,29.40
2009,07,27,12,18,29.50
2009,07,27,12,19,29.60
2009,07,27,12,20,29.70
2009,07,27,12,21,29.70
2009,07,27,12,22,29.80
2009,07,27,12,23,29.80
2009,07,27,12,24,29.90
2009,07,27,12,25,29.90
2009,07,27,12,26,30.00
2009,07,27,12,27,30.10
2009,07,27,12,28,30.20
2009,07,27,12,29,30.20
2009,07,27,12,30,30.20
2009,07,27,12,31,30.20
2009,07,27,12,32,30.20
2009,07,27,12,33,30.30
2009,07,27,12,34,30.30
2009,07,27,12,35,30.40
2009,07,27,12,36,30.40
2009,07,27,12,37,30.50
2009,07,27,12,38,30.60
2009,07,27,12,39,30.60
2009,07,27,12,40,30.60
2009,07,27,12,41,30.50
2009,07,27,12,42,30.40
2009,07,27,12,43,30.30
2009,07,27,12,44,30.30
2009,07,27,12,45,30.30
2009,07,27,12,46,30.30
2009,07,27,12,47,30.30
2009,07,27,12,48,30.40
2009,07,27,12,49,30.40
2009,07,27,12,50,30.50
2009,07,27,12,51,30.60
2009,07,27,12,52,30.70
2009,07,27,12,53,30.80
2009,07,27,12,54,30.80
2009,07,27,12,55,30.80
2009,07,27,12,56,30.80
2009,07,27,12,57,30.80
2009,07,27,12,58,30.80
2009,07,27,12,59,30.80
2009,07,27,13,00,30.90
2009,07,27,13,01,30.90
2009,07,27,13,02,30.90
2009,07,27,13,03,31.00
2009,07,27,13,04,31.10
2009,07,27,13,05,31.20
2009,07,27,13,06,31.30
2009,07,27,13,07,31.30
2009,07,27,13,08,31.40
2009,07,27,13,09,31.40
2009,07,27,13,10,31.40
2009,07,27,13,11,31.40
2009,07,27,13,12,31.50
2009,07,27,13,13,31.50
2009,07,27,13,14,31.60
2009,07,27,13,15,31.60
2009,07,27,13,16,31.70
2009,07,27,13,17,31.60
2009,07,27,13,18,31.50
2009,07,27,13,19,31.40
2009,07,27,13,20,31.40
2009,07,27,13,21,31.40
2009,07,27,13,22,31.40
2009,07,27,13,23,31.30
2009,07,27,13,24,31.30
2009,07,27,13,25,31.30
2009,07,27,13,26,31.30
2009,07,27,13,27,31.30
2009,07,27,13,28,31.30
2009,07,27,13,29,31.40
2009,07,27,13,30,31.40
2009,07,27,13,31,31.40
2009,07,27,13,32,31.40
2009,07,27,13,33,31.40
2009,07,27,13,34,31.50
2009,07,27,13,35,31.60
2009,07,27,13,36,31.70
2009,07,27,13,37,31.70
2009,07,27,13,38,31.80
2009,07,27,13,39,31.90
2009,07,27,13,40,31.90
2009,07,27,13,41,31.90
2009,07,27,13,42,31.90
2009,07,27,13,43,31.90
2009,07,27,13,44,32.00
2009,07,27,13,45,32.10
2009,07,27,13,46,32.10
2009,07,27,13,47,32.20
2009,07,27,13,48,32.20
2009,07,27,13,49,32.10
2009,07,27,13,50,32.00
2009,07,27,13,51,31.90
2009,07,27,13,52,31.80
2009,07,27,13,53,31.70
2009,07,27,13,54,31.70
2009,07,27,13,55,31.70
2009,07,27,13,56,31.70
2009,07,27,13,57,31.70
2009,07,27,13,58,31.70
2009,07,27,13,59,31.70
2009,07,27,14,00,31.70
2009,07,27,14,01,31.70
2009,07,27,14,02,31.70
2009,07,27,14,03,31.70
2009,07,27,14,04,31.70
2009,07,27,14,05,31.80
2009,07,27,14,06,31.80
2009,07,27,14,07,31.90
2009,07,27,14,08,32.00
2009,07,27,14,09,32.10
2009,07,27,14,10,32.20
2009,07,27,14,11,32.30
2009,07,27,14,12,32.30
2009,07,27,14,13,32.30
2009,07,27,14,14,32.30
2009,07,27,14,15,32.30
2009,07,27,14,16,32.20
2009,07,27,14,17,32.10
2009,07,27,14,18,32.10
2009,07,27,14,19,32.00
2009,07,27,14,20,32.00
2009,07,27,14,21,32.10
2009,07,27,14,22,32.10
2009,07,27,14,23,32.20
2009,07,27,14,24,32.30
2009,07,27,14,25,32.30
2009,07,27,14,26,32.40
2009,07,27,14,27,32.50
2009,07,27,14,28,32.50
2009,07,27,14,29,32.60
2009,07,27,14,30,32.60
2009,07,27,14,31,32.70
2009,07,27,14,32,32.60
2009,07,27,14,33,32.60
2009,07,27,14,34,32.60
2009,07,27,14,35,32.60
2009,07,27,14,36,32.50
2009,07,27,14,37,32.40
2009,07,27,14,38,32.40
2009,07,27,14,39,32.40
2009,07,27,14,40,32.50
2009,07,27,14,41,32.50
2009,07,27,14,42,32.50
2009,07,27,14,43,32.60
2009,07,27,14,44,32.60
2009,07,27,14,45,32.60
2009,07,27,14,46,32.50
2009,07,27,14,47,32.40
2009,07,27,14,48,32.40
2009,07,27,14,49,32.40
2009,07,27,14,50,32.30
2009,07,27,14,51,32.30
2009,07,27,14,52,32.40
2009,07,27,14,53,32.40
2009,07,27,14,54,32.30
2009,07,27,14,55,32.30
2009,07,27,14,56,32.40
2009,07,27,14,57,32.40
2009,07,27,14,58,32.40
2009,07,27,14,59,32.20
2009,07,27,15,00,32.10
2009,07,27,15,01,32.00
2009,07,27,15,02,31.90
2009,07,27,15,03,31.80
2009,07,27,15,04,31.80
2009,07,27,15,05,31.70
2009,07,27,15,06,31.60
2009,07,27,15,07,31.60
2009,07,27,15,08,31.50
2009,07,27,15,09,31.40
2009,07,27,15,10,31.40
2009,07,27,15,11,31.30
2009,07,27,15,12,31.30
2009,07,27,15,13,31.30
2009,07,27,15,14,31.40
2009,07,27,15,15,31.50
2009,07,27,15,16,31.50
2009,07,27,15,17,31.60
2009,07,27,15,18,31.60
2009,07,27,15,19,31.50
2009,07,27,15,20,31.50
2009,07,27,15,21,31.50
2009,07,27,15,22,31.60
2009,07,27,15,23,31.60
2009,07,27,15,24,31.60
2009,07,27,15,25,31.60
2009,07,27,15,26,31.60
2009,07,27,15,27,31.60
2009,07,27,15,28,31.50
2009,07,27,15,29,31.40
2009,07,27,15,30,31.30
2009,07,27,15,31,31.30
2009,07,27,15,32,31.30
2009,07,27,15,33,31.30
2009,07,27,15,34,31.20
2009,07,27,15,35,31.20
2009,07,27,15,36,31.20
2009,07,27,15,37,31.10
2009,07,27,15,38,31.10
2009,07,27,15,39,31.10
2009,07,27,15,40,31.10
2009,07,27,15,41,31.00
2009,07,27,15,42,30.90
2009,07,27,15,43,30.80
2009,07,27,15,44,30.70
2009,07,27,15,45,30.70
2009,07,27,15,46,30.70
2009,07,27,15,47,30.70
2009,07,27,15,48,30.70
2009,07,27,15,49,30.70
2009,07,27,15,50,30.80
2009,07,27,15,51,30.80
2009,07,27,15,52,30.80
2009,07,27,15,53,30.80
2009,07,27,15,54,30.80
2009,07,27,15,55,30.90
2009,07,27,15,56,30.90
2009,07,27,15,57,30.90
2009,07,27,15,58,31.00
2009,07,27,15,59,31.00
2009,07,27,16,00,31.10
2009,07,27,16,01,31.10
2009,07,27,16,02,31.10
2009,07,27,16,03,31.10
2009,07,27,16,04,31.10
2009,07,27,16,05,31.10
2009,07,27,16,06,31.10
2009,07,27,16,07,31.00
2009,07,27,16,08,31.00
2009,07,27,16,09,31.00
2009,07,27,16,10,31.00
2009,07,27,16,11,31.00
2009,07,27,16,12,31.00
2009,07,27,16,13,31.00
2009,07,27,16,14,31.00
2009,07,27,16,15,31.10
2009,07,27,16,16,31.10
2009,07,27,16,17,31.00
2009,07,27,16,18,31.00
2009,07,27,16,19,30.90
2009,07,27,16,20,30.90
2009,07,27,16,21,30.90
2009,07,27,16,22,30.90
2009,07,27,16,23,30.90
2009,07,27,16,24,30.80
2009,07,27,16,25,30.80
2009,07,27,16,26,30.80
2009,07,27,16,27,30.80
2009,07,27,16,28,30.70
2009,07,27,16,29,30.70
2009,07,27,16,30,30.70
2009,07,27,16,31,30.70
2009,07,27,16,32,30.60
2009,07,27,16,33,30.60
2009,07,27,16,34,30.60
2009,07,27,16,35,30.60
2009,07,27,16,36,30.60
2009,07,27,16,37,30.60
2009,07,27,16,38,30.60
2009,07,27,16,39,30.60
2009,07,27,16,40,30.60
2009,07,27,16,41,30.70
2009,07,27,16,42,30.70
2009,07,27,16,43,30.70
2009,07,27,16,44,30.70
2009,07,27,16,45,30.70
2009,07,27,16,46,30.70
2009,07,27,16,47,30.70
2009,07,27,16,48,30.70
2009,07,27,16,49,30.80
2009,07,27,16,50,30.80
2009,07,27,16,51,30.80
2009,07,27,16,52,30.80
2009,07,27,16,53,30.80
2009,07,27,16,54,30.90
2009,07,27,16,55,30.90
2009,07,27,16,56,30.90
2009,07,27,16,57,30.90
2009,07,27,16,58,30.90
2009,07,27,16,59,30.90
2009,07,27,17,00,30.90
2009,07,27,17,01,30.90
2009,07,27,17,02,30.90
2009,07,27,17,03,30.90
2009,07,27,17,04,30.90
2009,07,27,17,05,30.90
2009,07,27,17,06,30.90
2009,07,27,17,07,30.90
2009,07,27,17,08,30.90
2009,07,27,17,09,30.90
2009,07,27,17,10,31.00
2009,07,27,17,11,31.00
2009,07,27,17,12,31.00
2009,07,27,17,13,31.10
2009,07,27,17,14,31.10
2009,07,27,17,15,31.10
2009,07,27,17,16,31.10
2009,07,27,17,17,31.10
2009,07,27,17,18,31.10
2009,07,27,17,19,31.10